EW9778 Weather Reports


time (UTC)temp
C
wind
direction
speed
KPH
gust
KPH
rain 1hr
cm
rain 24hr
cm
rain mn
cm
humidity
%
barometer
mb
20260505171508 26 218 6.4 17.7 0.00 0.00 0.00 80 1008.2
20260505170008 25 219 4.8 12.9 0.00 0.00 0.00 81 1008.4
20260505164506 25 202 1.6 22.5 0.00 0.00 0.00 82 1008.4
20260505163009 25 174 6.4 14.5 0.00 0.00 0.00 81 1008.2
20260505161608 25 208 4.8 11.3 0.00 0.00 0.00 81 1008.2
20260505153101 25 224 6.4 16.1 0.00 0.00 0.00 83 1007.9
20260505151603 24 229 6.4 16.1 0.00 0.00 0.00 83 1007.9
20260505140106 23 213 3.2 9.7 0.00 0.00 0.00 85 1007.9
20260505124540 22 196 0.0 14.5 0.00 0.00 0.00 86 1007.7
20260505123042 22 205 6.4 14.5 0.00 0.00 0.00 87 1007.6
20260505121540 22 221 1.6 9.7 0.00 0.00 0.00 86 1007.5
20260505120045 22 227 4.8 14.5 0.00 0.00 0.00 87 1007.0
20260505114543 22 182 4.8 9.7 0.00 0.00 0.00 87 1007.2
20260505113033 22 215 3.2 11.3 0.00 0.00 0.00 87 1007.4
20260505111533 22 207 1.6 12.9 0.00 0.00 0.00 87 1007.2
20260505101558 22 194 4.8 12.9 0.00 0.00 0.00 86 1007.2
20260505100058 22 202 4.8 9.7 0.00 0.00 0.00 86 1007.5
20260505094557 21 189 3.2 9.7 0.00 0.00 0.00 86 1007.2
20260505093025 22 190 4.8 12.9 0.00 0.00 0.00 85 1007.3
20260505091524 21 222 0.0 8.0 0.00 0.00 0.00 86 1007.6
20260505090053 21 209 1.6 6.4 0.00 0.00 0.00 86 1007.6
20260505084555 21 184 3.2 11.3 0.00 0.00 0.00 85 1007.6
20260505083054 21 219 1.6 8.0 0.00 0.00 0.00 85 1007.8
20260505081548 21 178 3.2 11.3 0.00 0.00 0.00 85 1007.8
20260505080046 21 207 3.2 8.0 0.00 0.00 0.00 85 1008.0
20260505074545 21 207 1.6 9.7 0.00 0.00 0.00 84 1008.0
20260505073051 21 200 1.6 8.0 0.00 0.00 0.00 84 1008.1
20260505071552 21 207 3.2 11.3 0.00 0.00 0.00 84 1008.3
20260505070040 21 188 1.6 11.3 0.00 0.00 0.00 83 1008.2
20260505064538 21 180 4.8 14.5 0.00 0.00 0.00 83 1008.4
20260505063007 21 215 3.2 8.0 0.00 0.00 0.00 82 1008.8
20260505061501 21 233 3.2 17.7 0.00 0.00 0.00 82 1009.1
20260505060059 21 223 1.6 14.5 0.00 0.00 0.00 81 1009.0
20260505054559 21 220 4.8 11.3 0.00 0.00 0.00 81 1009.0
20260505053056 21 190 3.2 14.5 0.00 0.00 0.00 80 1009.2
20260505051605 21 214 4.8 12.9 0.00 0.00 0.00 80 1009.4
20260505041547 22 208 4.8 16.1 0.00 0.00 0.00 78 1009.2
20260505040044 22 188 6.4 16.1 0.00 0.00 0.00 78 1009.8
20260505034542 22 193 6.4 16.1 0.00 0.00 0.00 77 1009.9
20260505033040 22 186 6.4 16.1 0.00 0.00 0.00 76 1010.0
20260505031544 22 184 8.0 22.5 0.00 0.00 0.00 76 1009.8
20260505030035 22 205 8.0 17.7 0.00 0.00 0.00 76 1009.8
20260505024534 22 221 8.0 19.3 0.00 0.00 0.00 76 1009.9
20260505023032 23 186 6.4 17.7 0.00 0.00 0.00 76 1009.6
20260505021531 23 198 6.4 14.5 0.00 0.00 0.00 75 1009.7
20260505020032 23 220 8.0 25.7 0.00 0.00 0.00 75 1009.5
20260505020029 23 198 8.0 25.7 0.00 0.00 0.00 75 1009.5
20260505014559 23 204 6.4 16.1 0.00 0.00 0.00 74 1009.3
20260505013126 23 215 9.7 22.5 0.00 0.00 0.00 73 1009.4
20260505011605 23 198 6.4 19.3 0.00 0.00 0.00 73 1009.1
20260505010105 23 223 4.8 19.3 0.00 0.00 0.00 72 1009.1
20260505004553 24 207 4.8 16.1 0.00 0.00 0.00 72 1009.0
20260505003056 24 302 4.8 16.1 0.00 0.00 0.00 71 1008.9
20260505001520 25 191 3.2 14.5 0.00 0.00 0.00 71 1008.9
20260505000025 25 191 6.4 14.5 0.00 0.00 0.00 70 1009.0
20260504234514 25 206 4.8 16.1 0.00 0.00 0.00 70 1009.2
20260504233014 25 208 6.4 19.3 0.00 0.00 0.00 69 1009.4
20260504231513 25 219 6.4 19.3 0.00 0.00 0.00 69 1009.4
20260504230013 25 223 6.4 19.3 0.00 0.00 0.00 68 1009.5
20260504224508 25 209 6.4 19.3 0.00 0.00 0.00 68 1009.7
20260504223008 25 187 8.0 20.9 0.00 0.00 0.00 67 1009.7
20260504221507 26 214 11.3 19.3 0.00 0.00 0.00 66 1010.0
20260504220002 26 205 6.4 16.1 0.00 0.00 0.00 65 1010.1
20260504214615 26 198 8.0 24.1 0.00 0.00 0.00 65 1010.1
20260504213121 26 232 4.8 14.5 0.00 0.00 0.00 63 1010.4
20260504211557 26 215 4.8 14.5 0.00 0.00 0.00 63 1010.4
20260504210059 27 208 8.0 16.1 0.00 0.00 0.00 62 1010.5
20260504204526 26 178 0.0 11.3 0.00 0.00 0.00 62 1010.8
20260504203027 26 198 6.4 17.7 0.00 0.00 0.00 62 1011.0
20260504201517 26 229 4.8 16.1 0.00 0.00 0.00 63 1011.3
20260504200015 27 202 3.2 12.9 0.00 0.00 0.00 62 1011.5
20260504194513 27 182 6.4 14.5 0.00 0.00 0.00 60 1011.7
20260504193019 26 198 3.2 12.9 0.00 0.00 0.00 62 1011.8
20260504191506 26 193 1.6 17.7 0.00 0.00 0.00 63 1012.0
20260504190004 26 211 3.2 19.3 0.00 0.00 0.00 62 1012.4
20260504184503 26 215 4.8 17.7 0.00 0.00 0.00 62 1012.5
20260504183002 26 214 4.8 16.1 0.00 0.00 0.00 61 1012.4
20260504181535 26 248 6.4 14.5 0.00 0.00 0.00 62 1012.6
20260504180025 25 186 6.4 14.5 0.00 0.00 0.00 62 1012.9
20260504174522 25 205 6.4 17.7 0.00 0.00 0.00 63 1013.1
20260504173019 25 252 4.8 16.1 0.00 0.00 0.00 62 1013.2